Flag for U.S.A. Weather past 2 weeks in Waterbury, Connecticut, U.S.A.

Now
30 °F

Clear.


Feels Like: 21 °F
Forecast: 30 / 45 °F
Wind: 10 mph from North

Location: Oxford

Current Time: Apr 1, 2015 at 4:49:21 AM

Latest Report: Apr 1, 2015 at 4:35 AM


Visibility: 10 mi

Pressure: 29.86 "Hg

Humidity: 59%

Dew point: 18 °F

Location of WaterburyLocation

Historic Weather in Waterbury — Graph

°F

Waterbury temperature yesterday

Maximum temperature yesterday: 43 °F (at 11:50 AM)
Minimum temperature yesterday: 30 °F (at 6:50 AM)
Average temperature yesterday: 36 °F

Past Weeks' High & Low Weather Summary

 TemperatureHumidityPressure
High54 °F (Mar 26, 6:50 PM)87% (Mar 26, 3:50 PM)30.41 "Hg (Mar 26, 3:50 PM)
Low16 °F (Mar 23, 6:50 AM)26% (Mar 23, 2:50 PM)29.51 "Hg (Mar 17, 2:50 PM)
Average31 °F55%30.00 "Hg
* Reported Mar 17 3:15 AM — Apr 1 3:35 AM, Waterbury, Weather by CustomWeather, © 2015

Note: Actual official high and low records may vary slightly from our data, if they occured in-between our weather recording intervals... More about our weather records

Advertising

Waterbury weather history for previous 24 hours

 ConditionsComfort  
Time TempWeatherWind HumidityBarometerVisibility
3:35 AM
Wed, Apr 1
30 °FClear.10 mph69%29.83 "Hg10 mi
3:15 AM30 °FClear.8 mph69%29.83 "Hg10 mi
2:55 AM30 °FClear.10 mph69%29.82 "Hg10 mi
2:35 AM30 °FClear.8 mph69%29.81 "Hg10 mi
2:15 AM30 °FClear.7 mph75%29.80 "Hg10 mi
1:55 AM30 °FClear.3 mph80%29.80 "Hg10 mi
1:35 AM32 °FClear.6 mph75%29.80 "Hg10 mi
1:15 AM30 °FClear.6 mph80%29.79 "Hg10 mi
12:55 AM32 °FClear.6 mph75%29.79 "Hg10 mi
12:35 AM32 °FPassing clouds.5 mph75%29.79 "Hg10 mi
12:15 AM32 °FPassing clouds.5 mph75%29.79 "Hg10 mi
11:55 PM
Tue, Mar 31
34 °FClear.3 mph75%29.79 "Hg10 mi
11:35 PM34 °FPassing clouds.6 mph70%29.78 "Hg10 mi
10:55 PM34 °FPassing clouds.7 mph75%29.78 "Hg3 mi
10:35 PM34 °FPassing clouds.No wind75%29.79 "Hg7 mi
10:15 PM34 °FClear.3 mph75%29.78 "Hg9 mi
9:55 PM34 °FPassing clouds.No wind75%29.79 "Hg3 mi
9:35 PM34 °FPartly cloudy.No wind75%29.78 "Hg10 mi
9:15 PM34 °FMostly cloudy.3 mph75%29.77 "Hg9 mi
8:50 PM34 °FLight snow. Fog.5 mph75%29.77 "Hg2 mi
7:50 PM34 °FLight snow. Fog.No wind75%29.77 "Hg1 mi
6:50 PM34 °FLight snow. Fog.No wind75%29.77 "Hg2 mi
5:50 PM36 °FLight snow. Fog.No wind70%29.77 "Hg2 mi
4:50 PM36 °FLight snow. Fog.5 mph70%29.76 "Hg2 mi
3:50 PM39 °FLight snow. Fog.6 mph48%29.76 "Hg4 mi
2:50 PM43 °FOvercast.6 mph42%29.75 "Hg10 mi
1:50 PM43 °FOvercast.6 mph42%29.75 "Hg10 mi
12:50 PM43 °FMostly cloudy.6 mph46%29.77 "Hg10 mi
11:50 AM43 °FBroken clouds.6 mph49%29.81 "Hg10 mi
10:50 AM41 °FPartly sunny.6 mph49%29.83 "Hg10 mi
8:50 AM37 °FScattered clouds.9 mph56%29.86 "Hg10 mi
7:50 AM32 °FScattered clouds.5 mph64%29.83 "Hg10 mi
6:50 AM30 °FPassing clouds.5 mph64%29.82 "Hg10 mi
5:50 AM34 °FPassing clouds.5 mph60%29.79 "Hg10 mi
5:35 AM34 °FClear.7 mph60%29.79 "Hg10 mi
5:15 AM34 °FClear.7 mph60%29.78 "Hg10 mi
4:55 AM34 °FClear.8 mph60%29.78 "Hg10 mi
4:35 AM34 °FClear.6 mph60%29.79 "Hg10 mi
4:15 AM36 °FPassing clouds.6 mph56%29.78 "Hg10 mi
Weather by CustomWeather, © 2015

See weather overviewHow to use our weather pages